User: anonymous   Login
Location: Holyhead Bay
(53.3667°N, 4.6667°W)
Time: 11:25:15
(UTC+00:00)
Language:

IRIDIUM 33 DEB - Orbit

View from above orbital plane
View from above orbital plane
View from above satellite
View from above satellite

Ground track
Ground track

The orbit data is extracted from the following two-line orbital elements,

1 36017U 97051UY  21267.27235045  .00013249  00000-0  13267-2 0  9995
2 36017  86.3570 259.1743 0008745 228.1726 193.0874 14.91277790645005
Epoch (UTC): 24 September 2021 06:32:11
Eccentricity: 0.0008745
inclination: 86.3570°
perigee height: 588 km
apogee height: 600 km
right ascension of ascending node: 259.1743°
argument of perigee: 228.1726°
revolutions per day: 14.91277790
mean anomaly at epoch: 193.0874°
orbit number at epoch: 64500

The dashed part of the orbit path shows where the satellite is in the earth's shadow,  

DLR